RH
56 58 54 54 67 59 59 51 49 48 43 40 42 49 66 98 95 74 79 99 65 68 80 77 72 59 60 58 59 49 52 55 53 46 43 48 55 56 57 50 48 51 54
63 63 64 52 64 65 54 52 42 40 33 26 24 28 42 68 69 76 68 99 99 76 92 93 96 74 66 65 62 60 57 59 61 60 62 59 61 64 69 71 69 64 53
76 75 69 54 51 47 46 44 41 37 26 20 19 23 33 43 45 59 64 99 100 100 100 100 92 82 80 77 64 58 64 72 71 65 70 79 80 83 79 82 78 78 76
91 80 65 61 47 40 39 35 35 28 23 18 17 17 18 20 22 36 63 97 100 100 100 100 100 100 100 93 95 100 90 81 81 81 86 99 100 97 100 94 93 89 87
67 64 61 55 54 43 35 32 30 29 25 18 17 17 19 24 23 27 41 88 93 92 92 94 94 93 100 100 100 100 96 87 88 81 86 91 90 85 94 92 90 84 96
62 63 61 53 49 40 34 31 30 30 27 20 20 18 20 20 20 22 25 33 40 50 49 55 50 55 86 86 92 100 100 100 100 100 88 86 100 100 93 88 74 71 89
68 62 58 50 46 36 32 32 31 30 29 24 24 23 22 22 22 23 24 23 26 48 32 39 56 60 67 89 88 82 90 100 100 100 100 73 85 83 80 56 41 56 80
65 60 55 49 45 33 31 32 32 32 32 32 30 28 30 27 27 28 30 31 29 29 39 64 90 100 100 100 99 94 99 100 100 89 69 66 61 54 47 34 30 46 64
58 54 50 46 42 38 36 35 35 34 35 36 36 38 37 34 34 33 33 33 34 36 35 36 36 48 93 90 79 68 58 68 75 69 60 61 57 53 52 42 34 35 47
53 47 43 43 44 42 40 41 39 39 40 40 41 41 42 45 45 45 44 41 40 40 40 42 46 44 42 43 43 52 62 68 72 72 69 82 89 93 90 81 75 62 50
48 46 44 42 44 46 44 46 46 42 42 42 44 45 46 47 48 51 51 51 50 50 49 43 42 42 43 43 48 52 52 50 52 59 64 68 72 73 75 87 90 85 73
57 47 41 41 45 48 52 51 49 46 46 46 48 51 51 52 50 53 53 53 52 52 54 56 55 54 51 50 49 48 48 47 48 49 52 54 58 64 71 69 68 79 76
66 58 48 43 38 36 38 41 44 52 52 53 52 54 59 58 54 52 56 57 57 56 56 61 63 66 66 62 63 62 56 53 51 52 50 50 54 55 54 58 59 61 60
50 53 55 44 39 39 39 41 42 42 49 62 70 68 64 58 58 57 56 59 60 55 56 57 58 61 61 62 64 64 70 72 70 61 55 50 48 51 53 58 62 68 70
60 55 50 54 42 36 42 43 43 39 38 40 46 50 55 56 57 57 57 56 48 48 46 49 48 48 52 54 57 62 66 65 64 68 65 65 67 66 64 69 61 63 58
35 34 33 34 32 32 34 35 36 38 38 37 42 44 41 39 37 35 37 39 37 36 35 38 37 32 32 36 44 55 56 56 59 61 60 62 64 68 64 55 58 65 63
24 21 21 20 19 18 18 16 21 26 29 34 39 42 37 37 42 40 35 33 36 40 41 40 43 48 45 37 32 32 36 41 48 54 51 50 55 55 56 57 58 59 62
18 16 15 16 16 17 17 17 18 20 24 31 30 23 21 25 32 32 35 41 42 40 38 38 37 35 36 40 41 38 34 30 28 34 40 42 44 46 50 60 62 60 61
17 17 17 17 17 17 18 18 19 20 21 23 23 24 24 23 26 30 28 25 27 34 36 32 29 27 26 26 27 27 27 27 30 31 31 32 33 34 37 42 46 47 48
20 19 17 16 17 18 19 19 19 20 23 24 24 25 24 24 24 24 21 17 15 13 12 12 12 12 11 10 9 10 11 11 11 14 17 20 23 25 26 22 20 24 26
23 20 20 20 19 21 22 20 20 20 22 26 27 25 24 22 20 20 19 17 16 15 15 15 14 14 14 13 12 14 16 16 13 12 11 10 10 10 10 9 10 12 14
22 22 24 22 22 24 23 22 22 21 21 20 22 23 22 21 21 22 20 18 17 19 22 21 20 18 17 17 17 16 16 16 16 15 15 14 14 12 12 13 13 12 11
25 26 26 23 24 24 22 20 19 19 20 24 24 23 22 23 23 24 28 28 26 24 22 20 18 16 14 13 14 15 15 17 17 18 19 19 19 18 16 15 15 15 16
25 32 30 24 23 20 19 18 19 24 28 28 27 29 32 33 32 30 28 24 21 20 19 18 18 20 22 20 19 20 19 20 22 24 21 20 18 17 18 18 20 21 21
40 31 24 24 25 26 26 26 26 26 31 36 38 35 31 28 25 22 22 24 25 28 28 25 24 23 22 20 18 19 19 20 21 24 28 26 25 23 23 22 18 17 18
28 29 28 26 26 26 27 31 36 38 36 36 32 27 27 29 32 34 34 35 35 33 35 35 33 30 29 27 23 22 22 23 24 25 24 26 28 24 25 26 28 28 24
Wind_Speed
27 26 27 27 28 30 31 32 33 34 33 33 33 32 30 27 28 22 23 24 24 23 23 20 19 19 19 17 16 15 14 14 15 17 17 17 18 17 17 18 19 20 20
28 29 29 29 30 32 32 35 32 32 33 35 33 30 29 28 30 25 24 24 25 28 25 23 23 23 24 24 22 21 21 21 20 21 22 23 22 21 21 21 22 24 24
31 30 31 32 33 35 35 35 34 33 34 34 33 30 29 29 31 27 25 26 25 26 27 26 26 27 28 28 27 27 28 29 29 28 28 28 28 28 26 25 28 28 28
30 32 34 36 35 36 35 34 33 31 33 33 29 28 29 30 30 29 26 29 29 30 31 30 29 30 30 31 32 33 33 33 34 35 34 32 32 33 33 31 31 32 33
36 39 39 39 39 38 36 33 29 31 33 31 28 28 27 26 24 25 27 30 32 32 33 35 36 36 36 34 34 35 36 35 35 36 37 35 34 35 36 38 39 37 35
42 43 41 38 39 38 37 30 29 32 32 29 29 26 24 24 23 24 26 29 32 35 37 40 41 39 40 40 37 37 38 40 42 40 41 40 38 39 41 41 44 41 39
40 41 41 40 39 37 33 30 30 32 29 29 28 25 24 24 23 23 23 24 25 28 31 32 34 36 39 40 40 40 38 41 42 44 46 48 46 44 46 43 43 43 40
41 41 42 40 39 36 33 33 34 35 32 29 29 28 27 27 25 26 28 28 28 28 29 29 28 29 31 33 34 33 36 38 40 39 37 37 39 40 41 40 41 41 41
42 41 40 41 39 37 37 36 36 38 37 35 33 32 32 32 32 31 32 32 32 31 31 30 29 29 31 32 32 33 34 35 35 34 33 35 37 38 39 39 37 35 38
40 40 41 41 41 41 40 40 40 40 40 40 39 37 36 37 38 39 38 38 37 38 38 38 37 35 35 36 36 34 36 36 36 38 39 39 40 41 41 40 38 37 36
43 44 44 45 45 45 45 43 43 43 44 45 44 44 43 42 43 43 44 44 44 44 44 44 43 42 43 44 43 41 43 43 43 44 44 43 44 44 44 43 42 42 40
49 48 49 49 49 49 50 51 49 50 49 48 48 48 49 49 50 50 51 51 51 51 51 50 50 51 51 52 52 51 51 51 51 50 50 50 49 49 49 49 48 48 48
54 55 55 55 53 54 55 56 57 56 55 56 55 55 55 56 57 57 57 57 59 58 57 58 57 58 58 59 60 60 60 60 60 59 59 58 58 57 56 56 56 54 53
61 61 61 62 59 58 57 60 60 61 60 60 62 63 63 64 64 65 65 65 65 66 67 67 66 68 68 69 69 69 68 68 69 71 68 66 66 66 64 63 63 60 59
58 59 59 61 62 61 60 61 62 61 61 62 64 67 68 69 72 72 72 73 72 71 71 71 72 73 73 73 73 72 73 74 73 73 74 72 74 73 74 69 66 68 67
62 62 62 64 65 65 64 63 64 65 66 66 67 68 70 71 73 74 76 76 76 75 76 76 77 77 77 77 78 78 78 79 80 80 79 78 76 74 74 73 72 71 74
60 60 60 61 63 64 63 64 64 64 66 68 69 71 71 71 71 73 74 74 75 75 76 77 77 77 79 80 80 82 84 85 84 85 85 85 85 84 82 81 80 78 76
56 56 55 56 58 60 61 62 62 64 66 67 67 68 69 69 70 72 74 76 77 79 80 82 84 86 86 87 88 88 87 88 89 89 89 89 89 88 89 88 88 87 84
55 55 58 59 59 61 61 61 62 61 64 66 68 69 70 71 72 74 75 78 80 82 84 86 89 90 91 91 92 93 95 95 94 94 93 94 95 94 92 93 94 93 94
58 61 60 62 64 63 61 62 63 63 64 65 67 70 73 75 77 77 79 81 83 84 85 87 88 89 90 90 91 91 92 93 94 94 94 95 95 96 97 97 98 99 98
66 65 67 69 66 64 64 64 64 66 67 68 70 72 75 77 79 82 83 84 84 85 87 89 90 90 92 91 91 91 91 94 95 97 98 96 94 94 93 93 94 94 93
69 71 71 70 68 66 66 65 66 68 70 71 72 74 75 75 75 76 78 79 79 77 75 75 75 77 78 74 75 77 78 80 83 86 90 94 96 99 100 102 102 101 97
74 74 75 72 71 69 68 69 70 71 72 71 70 68 67 67 68 68 68 69 69 72 73 73 74 73 73 71 71 74 75 77 79 80 82 82 84 88 90 93 95 97 99
78 78 76 74 71 71 71 71 71 71 69 64 61 60 61 62 64 67 69 71 70 69 67 64 62 57 55 54 54 55 60 62 64 65 69 68 73 80 86 89 89 88 88
83 81 78 74 72 71 69 68 64 59 58 57 58 60 63 66 67 66 63 60 57 54 53 54 54 52 50 51 49 48 49 53 54 56 60 66 63 64 68 73 79 84 88
80 74 72 68 66 63 58 55 55 56 59 61 63 62 58 53 50 48 48 49 51 52 52 51 51 52 51 49 47 46 45 45 46 49 50 54 61 61 57 57 60 66 73
Wind_Direction
282 288 296 300 299 303 306 308 306 306 303 302 299 295 293 285 289 284 271 270 269 272 273 267 267 266 268 264 264 264 263 271 275 275 274 279 288 291 292 290 293 297 296
281 287 296 296 296 300 304 307 303 301 302 303 300 293 290 285 286 279 269 269 273 273 273 275 272 271 270 266 259 255 256 261 267 270 270 270 273 274 277 281 286 284 280
279 287 293 295 297 298 299 302 301 301 301 300 298 294 290 285 282 275 262 253 257 265 269 271 271 271 269 270 268 265 266 268 269 267 265 267 268 267 271 278 281 278 278
279 284 287 291 295 298 299 300 299 299 302 301 299 297 294 292 286 276 259 256 258 263 266 266 269 271 271 269 270 270 269 270 273 275 276 276 275 273 273 274 277 278 276
279 281 285 288 289 295 296 297 293 298 302 300 299 299 298 296 292 282 267 255 260 264 265 267 269 268 265 265 270 273 271 271 271 272 273 273 272 271 271 277 283 281 272
277 279 281 284 288 291 292 289 290 296 299 295 299 301 301 298 295 289 282 274 268 267 268 269 270 269 265 264 260 266 272 273 269 270 271 271 271 272 275 279 281 278 274
273 276 277 282 286 290 290 288 287 295 299 293 295 296 298 298 296 293 292 290 282 277 273 275 275 271 266 266 271 272 268 269 272 270 271 268 267 272 276 278 279 278 272
271 272 276 280 284 289 289 287 287 292 296 293 290 291 291 290 290 289 289 290 287 283 280 277 278 273 270 270 271 270 269 268 268 270 271 271 270 272 273 275 275 273 271
269 272 276 281 285 289 288 287 285 287 291 294 293 291 288 288 287 286 286 285 285 285 283 281 277 276 271 271 275 275 272 268 266 267 267 268 270 271 273 275 275 275 272
270 273 277 281 282 284 284 285 283 282 286 288 290 292 289 286 286 287 287 286 285 285 285 283 281 277 273 272 272 272 274 272 271 270 269 270 272 274 277 278 276 276 276
270 273 274 276 277 278 280 277 278 278 279 282 283 286 287 286 285 283 282 283 283 283 284 283 281 279 279 279 277 274 273 273 273 270 270 271 271 272 273 274 275 278 277
270 272 272 273 274 275 275 277 277 276 275 276 277 278 279 281 283 284 282 282 282 282 282 281 282 282 282 282 280 279 278 277 276 275 272 271 271 271 272 274 274 271 272
270 271 271 272 272 273 273 273 274 273 274 274 274 275 276 277 279 280 280 279 280 280 280 280 280 280 279 279 280 279 279 278 277 276 275 275 275 274 274 274 276 273 273
268 270 270 271 275 276 274 272 274 275 275 274 273 273 274 275 275 276 277 277 277 277 277 277 276 274 274 275 274 274 274 275 276 277 276 276 275 275 275 275 274 273 275
271 272 274 274 277 277 275 276 277 275 273 272 272 272 273 274 275 276 275 276 276 275 274 273 273 273 272 272 271 271 272 273 272 272 273 273 273 274 274 273 271 272 272
276 278 278 277 278 277 276 276 275 277 276 275 274 274 274 274 274 274 274 274 274 274 273 272 273 271 269 269 268 268 268 269 270 270 269 269 268 267 266 266 268 270 270
276 279 280 281 281 281 280 281 279 277 277 276 275 275 275 274 275 274 274 273 273 272 271 270 269 268 269 269 267 266 266 265 265 265 267 267 267 266 265 265 266 267 267
276 279 283 284 284 283 283 283 282 282 282 281 279 278 277 276 275 275 275 274 272 271 270 269 268 268 267 267 268 268 267 266 266 265 265 264 264 264 264 264 265 265 266
280 282 286 285 286 287 284 284 283 282 281 280 278 277 276 276 275 275 273 272 272 271 271 271 272 272 272 271 271 271 271 270 269 267 266 265 265 264 265 267 267 266 265
286 291 292 293 293 289 286 283 281 280 280 279 278 277 274 273 272 273 274 274 275 277 278 278 277 278 278 278 278 278 277 276 275 274 272 271 269 268 268 268 268 267 267
289 291 295 294 293 289 287 285 284 282 282 282 281 279 278 277 276 275 278 279 280 280 281 281 281 280 278 277 277 275 275 275 275 273 273 272 271 271 269 268 268 267 267
286 288 293 293 292 290 286 284 284 283 283 283 282 281 280 281 282 282 282 282 282 281 281 282 282 282 283 283 279 275 274 273 271 270 269 269 270 270 269 269 269 268 269
287 290 293 293 292 289 286 284 284 284 285 284 283 283 284 285 285 285 285 287 288 289 289 288 286 286 284 282 279 277 276 274 274 273 272 271 270 269 269 269 268 267 267
290 291 292 292 289 288 286 285 285 284 285 286 285 285 284 285 288 290 290 291 291 290 288 287 287 285 283 283 281 279 278 276 275 276 277 275 272 271 269 268 267 266 265
290 290 290 289 288 287 287 288 287 287 286 286 288 289 289 290 291 293 292 291 291 293 294 295 296 295 293 292 290 286 283 280 276 275 278 282 279 277 274 272 269 267 265
287 288 288 286 287 287 287 287 287 288 288 289 290 292 295 295 295 295 296 297 297 297 295 296 294 294 294 294 291 289 286 283 280 278 277 278 283 282 279 277 273 270 267